星链-35204(STARLINK-35204)

导读

STARLINK-35204是美国SpaceX星链计划的一颗卫星,于2025年9月21日发射升空。星链项目旨在构建全球卫星互联网星座,为全球提供高速低延迟互联网服务,该卫星入轨后,将进一步扩充星链星座的规模,提升星座的服务覆盖能力与网络稳定性。

基本信息
目录编号:
65694
目录名称:
STARLINK-35204
国际标识:
2025-212U
轨道中心:
EARTH
卫星名称:
星链-35204
卫星全名:
星链-35204(STARLINK-35204)
卫星状态:
在轨 (已飞行348 天)
发射日期:
2025-09-21 UTC
国别 :
美国 (US)
星等 :
--
轨道信息
数据来源 国际轨道数据 AOE轨道数据
星历时间 2026-09-03T16:43:17+0800
1天前
查看轨道信息
2026-09-03T23:00:00+0800
1天前
查看轨道信息
半长轴 6840.836km 6840.895km
偏心率 0.0001185 0.0001442
轨道倾角 53.158° 53.157°
近地点辐角 86.785° 74.752°
升交点赤经 237.740° 236.524°
平近点角 273.329° 291.215°
近地点 461.888km 461.771km
远地点 463.51km 463.745km
周期 93.848分钟 93.849分钟
每日圈数 15.344016 15.343818
详细信息
固有亮度:
5
最大亮度:
2.5
卫星平台:
Starlink V1.0
覆盖范围:
全球
运营商:
太空探索技术公司
运营商所在国:
美国
制造商(研发单位):
太空探索技术公司
制造商所在国:
美国
使用方式:
暂无
卫星简介
Starlink 计划是 SpaceX 推出的全球卫星互联网项目,通过发射低轨道卫星,为全球尤其是偏远地区提供高速、低延迟的互联网服务。自 2019 年起,Starlink 已部署数千颗卫星,旨在缩小全球数字鸿沟,推动互联网普及。该项目还为军事、航空等行业提供通信支持,带来广泛经济效益。
2D轨道图
3D轨道图
轨道高度分析图
轨道倾角分析图
轨道综合分析图
查看轨道综合分析图
交会数据列表
事件ID 空间交会对象 最接近时刻(TCA) 交会距离 交会风险概率(CRP) 交会风险指数(CRI) 操作
CDM_260906-234505-371506-569421
2026-09-06T
23:45:52+0000
0.373 km
远距离
2.557696E-4 高风险 0.83
CDM_260906-011206-190106-569421
OBJECT H (61901)
2026-09-06T
01:12:31+0000
1.946 km
极远距离
2.694602E-6 低风险 0.44
CDM_260906-081106-569406-581121
2026-09-06T
08:11:28+0000
2.254 km
极远距离
1.983477E-6 低风险 0.41
CDM_260906-221205-371506-569421
2026-09-06T
22:12:04+0000
2.270 km
极远距离
1.389103E-6 低风险 0.38
CDM_260903-000305-318006-569421
2026-09-03T
00:03:04+0000
2.927 km
极远距离
1.226668E-6 低风险 0.37
CDM_260907-011905-371506-569421
2026-09-07T
01:19:39+0000
2.557 km
极远距离
1.11894E-6 低风险 0.36